Weather History for KWDG - March, 2012

Change the Weather History Date:

Sunday, March 11, 2012

  Actual Average Record
Temperature  
Mean Temperature 50 °F -  
Max Temperature 57 °F 54 °F 77 °F (2014)
Min Temperature 44 °F 34 °F 19 °F (1998)
Degree Days  
Heating Degree Days 14    
Moisture  
Dew Point 45 °F    
Average Humidity 93    
Maximum Humidity 100    
Minimum Humidity 67    
Precipitation  
Precipitation 0.05 in - - ()
Sea Level Pressure  
Sea Level Pressure 29.91 in    
Wind  
Wind Speed 9 mph (SSE)    
Max Wind Speed 20 mph    
Max Gust Speed -    
Visibility 9 miles    
Events Rain    
Averages and records for this station are not official NWS values.
T = Trace of Precipitation, MM = Missing Value Source: NWS Daily Summary

Daily Weather History Graph

Daily Weather History Graph

Search for Another Location

Airport or City:

Trip Planner

Search our weather history database for the weather conditions in past years. The results will help you decide how hot, cold, wet, or windy it might be!

Date:

Astronomy

Mar. 11, 2012 Rise Set
Actual Time 7:47 AM CDT 7:35 PM CDT
Civil Twilight 7:21 AM CDT 8:01 PM CDT
Nautical Twilight 6:51 AM CDT 8:31 PM CDT
Astronomical Twilight 6:21 AM CDT 9:01 PM CDT
Moon 11:51 PM CDT (3/11) 9:32 AM CDT (3/11)
Length of Visible Light 12h 39m
Length of Day
11h 48m
Waning Gibbous, 85% of the Moon is Illuminated
Mar 11
Waning Gibbous
Mar 14
Last Quarter
Mar 22
New
Mar 30
First Quarter
Apr 6
Full

Hourly Weather History & Observations

Time (CDT) Temp. Windchill Dew Point Humidity Pressure Visibility Wind Dir Wind Speed Gust Speed Precip Events Conditions
12:15 AM 46.4 °F 40.7 °F 42.8 °F 87% 30.09 in 10.0 mi SSE 12.7 mph - N/A   Overcast
12:35 AM 46.4 °F 41.5 °F 42.8 °F 87% 30.09 in 10.0 mi SSE 10.4 mph - N/A   Overcast
12:55 AM 46.4 °F 41.5 °F 42.8 °F 87% 30.09 in 10.0 mi South 10.4 mph - N/A   Overcast
1:15 AM 46.4 °F 42.4 °F 42.8 °F 87% 30.09 in 7.0 mi South 8.1 mph - 0.02 in Rain Rain
1:35 AM 46.4 °F 42.9 °F 44.6 °F 93% 30.08 in 7.0 mi South 6.9 mph - 0.04 in Rain Light Rain
1:55 AM 44.6 °F 39.7 °F 44.6 °F 100% 30.07 in 7.0 mi South 9.2 mph - 0.04 in Rain Light Rain
3:15 AM 44.6 °F 41.4 °F 44.6 °F 100% 30.06 in 7.0 mi SSE 5.8 mph - 0.01 in Rain Light Rain
3:35 AM 44.6 °F 42.2 °F 44.6 °F 100% 30.05 in 7.0 mi SSE 4.6 mph - 0.01 in   Overcast
3:55 AM 44.6 °F 42.2 °F 44.6 °F 100% 30.05 in 7.0 mi SSE 4.6 mph - 0.01 in Rain Light Rain
4:15 AM 44.6 °F 41.4 °F 44.6 °F 100% 30.04 in 5.0 mi SSE 5.8 mph - N/A Rain Light Rain
4:35 AM 44.6 °F 42.2 °F 44.6 °F 100% 30.02 in 7.0 mi SSE 4.6 mph - N/A   Overcast
4:55 AM 44.6 °F 42.2 °F 44.6 °F 100% 30.01 in 7.0 mi SE 4.6 mph - N/A   Overcast
5:15 AM 44.6 °F 41.4 °F 44.6 °F 100% 30.01 in 7.0 mi SE 5.8 mph - N/A   Overcast
5:35 AM 44.6 °F 40.2 °F 44.6 °F 100% 30.00 in 7.0 mi ESE 8.1 mph - N/A   Overcast
5:55 AM 44.6 °F 40.2 °F 44.6 °F 100% 29.99 in 7.0 mi ESE 8.1 mph - N/A   Overcast
6:20 AM 46.4 °F 40.7 °F 46.4 °F 100% 29.99 in 7.0 mi SE 12.7 mph - N/A   Overcast
8:50 AM 46.4 °F 41.1 °F 46.4 °F 100% 29.98 in 5.0 mi South 11.5 mph - N/A Rain Light Rain
10:50 AM 48.2 °F - 46.4 °F 93% 29.96 in 7.0 mi South 16.1 mph - N/A   Overcast
12:50 PM 51.8 °F - 48.2 °F 88% 29.90 in 10.0 mi South 19.6 mph - N/A   Overcast
1:50 PM 51.8 °F - 46.4 °F 82% 29.89 in 10.0 mi South 13.8 mph - N/A   Mostly Cloudy
2:50 PM 51.8 °F - 48.2 °F 88% 29.86 in 10.0 mi South 13.8 mph - N/A   Overcast
4:50 PM 57.2 °F - 46.4 °F 67% 29.82 in 10.0 mi South 13.8 mph - N/A   Mostly Cloudy
5:50 PM 55.4 °F - 46.4 °F 72% 29.80 in 10.0 mi South 13.8 mph - N/A   Mostly Cloudy
7:50 PM 51.8 °F - 46.4 °F 82% 29.79 in 10.0 mi SSE 9.2 mph - N/A   Scattered Clouds
8:50 PM 50.0 °F - 46.4 °F 87% 29.79 in 10.0 mi SSE 9.2 mph - N/A   Scattered Clouds
9:15 PM 48.2 °F - 44.6 °F 87% 29.78 in 10.0 mi SSE 9.2 mph - N/A   Clear
9:35 PM 48.2 °F - 44.6 °F 87% 29.79 in 10.0 mi South 6.9 mph - N/A   Clear
9:55 PM 48.2 °F - 44.6 °F 87% 29.79 in 10.0 mi South 8.1 mph - N/A   Clear
10:15 PM 46.4 °F 42.4 °F 44.6 °F 93% 29.78 in 10.0 mi SSE 8.1 mph - N/A   Clear
10:35 PM 44.6 °F 40.2 °F 42.8 °F 93% 29.78 in 10.0 mi SSE 8.1 mph - N/A   Clear
10:55 PM 44.6 °F 39.7 °F 44.6 °F 100% 29.77 in 10.0 mi SE 9.2 mph - N/A   Clear
11:15 PM 44.6 °F 42.2 °F 42.8 °F 93% 29.77 in 10.0 mi South 4.6 mph - N/A   Clear
11:35 PM 44.6 °F 39.7 °F 42.8 °F 93% 29.77 in 10.0 mi South 9.2 mph - N/A   Clear
11:55 PM 44.6 °F 39.7 °F 44.6 °F 100% 29.77 in 10.0 mi South 9.2 mph - N/A   Clear
12:15 AM 46.4 °F 44.3 °F 44.6 °F 93% 29.77 in 10.0 mi South 4.6 mph - N/A   Clear
12:35 AM 44.6 °F 39.2 °F 44.6 °F 100% 29.77 in 10.0 mi South 10.4 mph - N/A   Clear
12:55 AM 44.6 °F 40.7 °F 44.6 °F 100% 29.75 in 10.0 mi South 6.9 mph - N/A   Clear